Alexandria, LA

9:11 PM CST on February 10, 2016 (GMT -0600)
Alexandria International

Weather History for KAEX - January, 2001

Change the Weather History Date:

Tuesday, January 16, 2001

  Actual Average Record
Temperature  
Mean Temperature 46 °F 49 °F  
Max Temperature 48 °F 59 °F 79 °F (1935)
Min Temperature 44 °F 38 °F 18 °F (1972)
Degree Days  
Heating Degree Days 19 16  
Month to date heating degree days 256  
Since 1 July heating degree days 1045  
Moisture  
Dew Point 43 °F    
Average Humidity 94    
Maximum Humidity 100    
Minimum Humidity 69    
Precipitation  
Precipitation 1.80 in 0.15 in 1.83 in (2001)
Month to date precipitation 2.42  
Year to date precipitation 2.42  
Snow  
Snow 0.00 in - T in (1957)
Month to date snowfall  
Since 1 July snowfall  
Snow Depth -    
Sea Level Pressure  
Sea Level Pressure 30.14 in    
Wind  
Wind Speed 8 mph (ENE)    
Max Wind Speed 14 mph    
Max Gust Speed -    
Visibility 8 miles    
Events Rain    
T = Trace of Precipitation, MM = Missing Value Source: NWS Daily Summary

Daily Weather History Graph

Daily Weather History Graph

Search for Another Location

Airport or City:

Trip Planner

Search our weather history database for the weather conditions in past years. The results will help you decide how hot, cold, wet, or windy it might be!

Date:

Astronomy

Jan. 16, 2001 Rise Set
Actual Time 7:09 AM CST 5:31 PM CST
Civil Twilight 6:43 AM CST 5:57 PM CST
Nautical Twilight 6:13 AM CST 6:26 PM CST
Astronomical Twilight 5:44 AM CST 6:56 PM CST
Moon 12:09 AM CST (1/16) 12:05 PM CST (1/16)
Length of Visible Light 11h 14m
Length of Day
10h 21m
Waning Gibbous, 48% of the Moon is Illuminated
Jan 16
Waning Gibbous
Jan 24
New
Feb 1
First Quarter
Feb 8
Full
Feb 14
Last Quarter

Hourly Weather History & Observations

Time (CST) Temp. Windchill Dew Point Humidity Pressure Visibility Wind Dir Wind Speed Gust Speed Precip Events Conditions
12:53 AM 48.9 °F - 39.0 °F 69% 30.19 in 10.0 mi North 8.1 mph - 0.02 in Rain Light Rain
1:53 AM 46.0 °F 42.5 °F 39.9 °F 79% 30.21 in 8.0 mi NE 6.9 mph - 0.05 in Rain Rain
2:53 AM 46.0 °F 41.4 °F 41.0 °F 83% 30.17 in 10.0 mi East 9.2 mph - 0.06 in Rain Light Rain
4:53 AM 45.0 °F 41.2 °F 42.1 °F 90% 30.21 in 7.0 mi North 6.9 mph - 0.08 in Rain Rain
5:53 AM 45.0 °F 40.1 °F 42.1 °F 90% 30.17 in 10.0 mi ENE 9.2 mph - 0.09 in Rain Light Rain
6:53 AM 44.1 °F 40.1 °F 43.0 °F 96% 30.17 in 7.0 mi NE 6.9 mph - 0.09 in Rain Rain
7:16 AM 44.6 °F 39.7 °F 42.8 °F 93% 30.17 in 5.0 mi NE 9.2 mph - 0.11 in Rain Heavy Rain
7:53 AM 44.1 °F 39.0 °F 42.1 °F 93% 30.20 in 7.0 mi ENE 9.2 mph - 0.20 in Rain Rain
8:13 AM 44.6 °F - 42.8 °F 93% 30.19 in 3.0 mi Calm Calm - 0.05 in Rain Rain
8:53 AM 44.1 °F 40.8 °F 42.1 °F 93% 30.20 in 3.0 mi Variable 5.8 mph - 0.11 in Rain Light Rain
9:53 AM 44.1 °F 39.5 °F 42.1 °F 93% 30.22 in 7.0 mi East 8.1 mph - 0.01 in Rain Light Rain
10:53 AM 44.1 °F 39.0 °F 43.0 °F 96% 30.21 in 10.0 mi East 9.2 mph - 0.07 in Rain Light Rain
11:28 AM 44.6 °F 39.7 °F 42.8 °F 93% 30.17 in 10.0 mi East 9.2 mph - 0.02 in Rain Light Rain
11:53 AM 44.1 °F 39.0 °F 43.0 °F 96% 30.20 in 10.0 mi NE 9.2 mph - 0.04 in Rain Light Rain
12:35 PM 44.6 °F 38.1 °F 42.8 °F 93% 30.12 in 8.0 mi East 13.8 mph - 0.06 in Rain Light Rain
12:53 PM 44.1 °F 40.1 °F 43.0 °F 96% 30.15 in 10.0 mi East 6.9 mph - 0.06 in Rain Light Rain
1:21 PM 44.6 °F 39.2 °F 42.8 °F 93% 30.11 in 10.0 mi East 10.4 mph - 0.02 in Rain Light Rain
1:53 PM 44.1 °F 38.1 °F 43.0 °F 96% 30.11 in 10.0 mi East 11.5 mph - 0.05 in Rain Light Rain
2:32 PM 44.6 °F 39.2 °F 42.8 °F 93% 30.07 in 6.0 mi East 10.4 mph - 0.05 in Rain Rain
2:53 PM 44.1 °F 37.7 °F 43.0 °F 96% 30.07 in 4.0 mi East 12.7 mph - 0.13 in Rain Rain
3:53 PM 45.0 °F 41.2 °F 44.1 °F 97% 30.08 in 10.0 mi East 6.9 mph - 0.01 in Rain Light Rain
4:53 PM 44.1 °F 40.1 °F 44.1 °F 100% 30.09 in 4.0 mi ENE 6.9 mph - 0.11 in Rain Rain
5:01 PM 44.6 °F 40.7 °F 44.6 °F 100% 30.07 in 5.0 mi ENE 6.9 mph - 0.02 in Rain Rain
5:25 PM 44.6 °F 40.2 °F 44.6 °F 100% 30.06 in 4.0 mi ENE 8.1 mph - 0.13 in Rain Heavy Rain
5:41 PM 44.6 °F 42.2 °F 44.6 °F 100% 30.07 in 5.0 mi ENE 4.6 mph - 0.22 in Rain Heavy Rain
5:53 PM 44.1 °F 40.1 °F 44.1 °F 100% 30.09 in 6.0 mi ENE 6.9 mph - 0.26 in Rain Rain
6:53 PM 44.1 °F 39.5 °F 44.1 °F 100% 30.09 in 7.0 mi East 8.1 mph - 0.15 in Rain Rain
7:53 PM 44.1 °F 40.8 °F 44.1 °F 100% 30.09 in 9.0 mi NE 5.8 mph - 0.12 in Rain Light Rain
8:53 PM 44.1 °F 41.5 °F 44.1 °F 100% 30.11 in 6.0 mi NE 4.6 mph - 0.04 in Rain Light Rain
9:53 PM 44.1 °F 40.8 °F 44.1 °F 100% 30.10 in 9.0 mi NE 5.8 mph - 0.01 in Rain Light Rain
10:53 PM 44.1 °F 39.5 °F 44.1 °F 100% 30.09 in 10.0 mi ENE 8.1 mph - 0.02 in Rain Light Rain
11:53 PM 44.1 °F 39.5 °F 44.1 °F 100% 30.09 in 9.0 mi ENE 8.1 mph - 0.02 in Rain Light Rain